TimeCDT,TemperatureF,Dew PointF,Humidity,Sea Level PressureIn,VisibilityMPH,Wind Direction,Wind SpeedMPH,Gust SpeedMPH,PrecipitationIn,Events,Conditions,WindDirDegrees,DateUTC
12:56 AM,75.0,70.0,84,30.05,10.0,SSE,9.2,-,N/A,,Clear,160,2012-10-05 05:56:00
1:56 AM,73.0,70.0,90,30.04,10.0,South,9.2,-,N/A,,Clear,170,2012-10-05 06:56:00
2:56 AM,73.0,70.0,90,30.04,10.0,SSE,9.2,-,N/A,,Clear,160,2012-10-05 07:56:00
3:56 AM,72.0,70.0,93,30.03,10.0,SSE,8.1,-,N/A,,Clear,160,2012-10-05 08:56:00
4:56 AM,71.1,69.1,93,30.03,10.0,SSE,6.9,-,N/A,,Clear,160,2012-10-05 09:56:00
5:56 AM,70.0,68.0,93,30.04,10.0,SE,5.8,-,N/A,,Clear,140,2012-10-05 10:56:00
6:56 AM,71.1,69.1,93,30.05,10.0,SSE,8.1,-,N/A,,Partly Cloudy,160,2012-10-05 11:56:00
7:56 AM,72.0,70.0,93,30.06,10.0,South,6.9,-,N/A,,Partly Cloudy,170,2012-10-05 12:56:00
8:56 AM,77.0,70.0,79,30.08,10.0,SSE,9.2,-,N/A,,Partly Cloudy,160,2012-10-05 13:56:00
9:56 AM,82.0,70.0,67,30.09,10.0,South,15.0,-,N/A,,Partly Cloudy,170,2012-10-05 14:56:00
10:56 AM,86.0,69.1,57,30.08,10.0,SSE,12.7,21.9,N/A,,Partly Cloudy,160,2012-10-05 15:56:00
11:56 AM,88.0,69.1,53,30.07,10.0,SE,15.0,20.7,N/A,,Scattered Clouds,140,2012-10-05 16:56:00
12:56 PM,90.0,69.1,50,30.04,10.0,SE,10.4,-,N/A,,Scattered Clouds,130,2012-10-05 17:56:00
1:56 PM,90.0,68.0,48,30.01,10.0,SE,11.5,-,N/A,,Partly Cloudy,130,2012-10-05 18:56:00
2:56 PM,91.0,68.0,47,29.98,10.0,South,9.2,16.1,N/A,,Partly Cloudy,180,2012-10-05 19:56:00
3:56 PM,91.0,68.0,47,29.96,10.0,SE,10.4,18.4,N/A,,Partly Cloudy,130,2012-10-05 20:56:00
4:56 PM,90.0,66.9,46,29.95,10.0,ESE,9.2,-,N/A,,Partly Cloudy,120,2012-10-05 21:56:00
5:56 PM,87.1,64.9,48,29.95,10.0,ESE,13.8,-,N/A,,Partly Cloudy,120,2012-10-05 22:56:00
6:56 PM,82.0,66.0,58,29.96,10.0,ESE,9.2,-,N/A,,Clear,120,2012-10-05 23:56:00
7:56 PM,78.1,69.1,74,29.96,10.0,ESE,9.2,-,N/A,,Clear,120,2012-10-06 00:56:00
8:56 PM,75.9,69.1,79,29.98,10.0,ESE,8.1,-,N/A,,Clear,120,2012-10-06 01:56:00
9:56 PM,73.9,68.0,82,29.98,10.0,SE,8.1,-,N/A,,Clear,130,2012-10-06 02:56:00
10:56 PM,72.0,66.9,84,29.98,10.0,SE,6.9,-,N/A,,Clear,130,2012-10-06 03:56:00
11:56 PM,71.1,66.9,87,29.98,10.0,SSE,3.5,-,N/A,,Clear,160,2012-10-06 04:56:00